User: anonymous
Location: Unspecified
(0.0000°N, 0.0000°E)
Time: 13:59:44
(UTC+00:00)
Language:

ETS 8 - Orbit

View from above orbital plane
View from above orbital plane
View from above satellite
View from above satellite

Ground track
Ground track

The orbit data is extracted from the following two-line orbital elements,

1 29656U 06059A   14262.66089414 -.00000259  00000-0  00000+0 0  4969
2 29656 003.7039 065.9092 0005489 105.2826 210.9238 01.00271422 28434
Epoch (UTC): 19 September 2014 15:51:41
Eccentricity: 0.0005489
inclination: 3.7039°
perigee height: 35763 km
apogee height: 35809 km
right ascension of ascending node: 65.9092°
argument of perigee: 105.2826°
revolutions per day: 1.00271422
mean anomaly at epoch: 210.9238°
orbit number at epoch: 2843

The dashed part of the orbit path shows where the satellite is in the earth's shadow,  

DLR